Flag for Canada Weather past 2 weeks in Glace Bay, Nova Scotia, Canada

Now
57 °F

Broken clouds.


Feels Like: 55 °F
Forecast: 54 / 71 °F
Wind: 10 mph from Southeast

Location: Sydney

Current Time: Jul 1, 2015 at 10:29:42 PM

Latest Report: Jul 1, 2015 at 9:00 PM


Visibility: 15 mi

Pressure: 29.96 "Hg

Humidity: 88%

Dew point: 54 °F

Location of Glace BayLocation

Historic Weather in Glace Bay — Graph

°F

Glace Bay temperature yesterday

Maximum temperature yesterday: 72 °F (at 2:00 PM)
Minimum temperature yesterday: 54 °F (at 1:00 AM)
Average temperature yesterday: 62 °F

Past Weeks' High & Low Weather Summary

 TemperatureHumidityPressure
High73 °F (Jun 18, 2:00 PM)100% (Jun 17, 1:00 AM)30.24 "Hg (Jun 17, 1:00 AM)
Low41 °F (Jun 18, 5:00 AM)33% (Jun 20, 1:00 PM)29.60 "Hg (Jun 22, 2:00 PM)
Average55 °F79%29.95 "Hg
* Reported Jun 16 9:00 PM — Jul 1 9:00 PM, Glace Bay, Weather by CustomWeather, © 2015

Note: Actual official high and low records may vary slightly from our data, if they occured in-between our weather recording intervals... More about our weather records

Advertising

Glace Bay weather history for previous 24 hours

 ConditionsComfort  
Time TempWeatherWind HumidityBarometerVisibility
9:00 PM
Wed, Jul 1
57 °FBroken clouds.10 mph88%29.96 "Hg15 mi
8:00 PM63 °FBroken clouds.9 mph77%29.96 "Hg15 mi
7:00 PM68 °FScattered clouds.9 mph69%29.95 "Hg15 mi
6:00 PM72 °FScattered clouds.9 mph65%29.95 "Hg15 mi
5:00 PM72 °FScattered clouds.9 mph65%29.97 "Hg15 mi
4:00 PM72 °FBroken clouds.14 mph57%29.98 "Hg15 mi
3:00 PM73 °FPartly sunny.13 mph53%29.99 "Hg15 mi
2:00 PM73 °FPartly sunny.13 mph53%30.01 "Hg15 mi
1:00 PM73 °FBroken clouds.10 mph57%30.02 "Hg15 mi
12:00 PM73 °FScattered clouds.9 mph61%30.02 "Hg15 mi
11:00 AM72 °FBroken clouds.7 mph61%30.02 "Hg15 mi
10:00 AM70 °FBroken clouds.5 mph64%30.02 "Hg15 mi
9:00 AM68 °FBroken clouds.3 mph69%30.03 "Hg15 mi
8:00 AM64 °FBroken clouds.2 mph78%30.02 "Hg15 mi
7:00 AM57 °FScattered clouds.No wind94%30.02 "Hg15 mi
6:00 AM52 °FFog.5 mph100%30.02 "Hg15 mi
5:00 AM54 °FPassing clouds.2 mph100%30.01 "Hg15 mi
4:00 AM55 °FPassing clouds.2 mph94%30.01 "Hg15 mi
3:00 AM57 °FPassing clouds.6 mph94%30.01 "Hg15 mi
2:00 AM55 °FPassing clouds.5 mph94%30.00 "Hg15 mi
1:00 AM54 °FPassing clouds.7 mph100%29.99 "Hg15 mi
12:00 AM55 °FPassing clouds.6 mph94%29.98 "Hg15 mi
11:00 PM
Tue, Jun 30
55 °FPassing clouds.2 mph94%29.98 "Hg15 mi
10:00 PM57 °FPassing clouds.3 mph82%29.99 "Hg15 mi
Weather by CustomWeather, © 2015

See weather overviewHow to use our weather pages